Edgartown, MA

3:53 AM EST on January 17, 2017 (GMT -0500)
Martha's Vineyard

Weather History for KMVY - May, 2013

Change the Weather History Date:

Friday, May 24, 2013

  Actual Average Record
Temperature  
Mean Temperature 62 °F -  
Max Temperature 66 °F 66 °F 85 °F (1964)
Min Temperature 55 °F 49 °F 35 °F (1997)
Degree Days  
Heating Degree Days 4    
Growing Degree Days 12 (Base 50)    
Moisture  
Dew Point 60 °F    
Average Humidity 96    
Maximum Humidity 100    
Minimum Humidity 90    
Precipitation  
Precipitation 1.62 in - - ()
Sea Level Pressure  
Sea Level Pressure 29.75 in    
Wind  
Wind Speed 14 mph (SSW)    
Max Wind Speed 31 mph    
Max Gust Speed 46 mph    
Visibility 3 miles    
Events Fog , Rain    
Averages and records for this station are not official NWS values.
T = Trace of Precipitation, MM = Missing Value Source: NWS Daily Summary

Daily Weather History Graph

Daily Weather History Graph

Search for Another Location

Airport or City:

Trip Planner

Search our weather history database for the weather conditions in past years. The results will help you decide how hot, cold, wet, or windy it might be!

Date:

Astronomy

May. 24, 2013 Rise Set
Actual Time 5:15 AM EDT 8:03 PM EDT
Civil Twilight 4:43 AM EDT 8:35 PM EDT
Nautical Twilight 4:02 AM EDT 9:16 PM EDT
Astronomical Twilight 3:15 AM EDT 10:03 PM EDT
Moon 7:41 PM EDT (5/24) 4:45 AM EDT (5/24)
Length of Visible Light 15h 52m
Length of Day
14h 47m
Full, 100% of the Moon is Illuminated
May 24
Full
May 25
Full
May 31
Last Quarter
Jun 8
New
Jun 16
First Quarter

Hourly Weather History & Observations

Time (EDT) Temp. Dew Point Humidity Pressure Visibility Wind Dir Wind Speed Gust Speed Precip Events Conditions
12:00 AM 62.6 °F 60.8 °F 94% 29.89 in 4.0 mi South 16.1 mph 25.3 mph 0.02 in Rain Rain
12:48 AM 62.6 °F 60.8 °F 94% 29.87 in 2.5 mi SSW 13.8 mph 23.0 mph 0.24 in Rain Heavy Rain
12:53 AM 62.1 °F 61.0 °F 96% 29.87 in 3.0 mi South 12.7 mph 23.0 mph 0.26 in Rain Heavy Rain
1:53 AM 63.0 °F 62.1 °F 97% 29.83 in 6.0 mi South 13.8 mph 24.2 mph 0.17 in Rain Rain
2:53 AM 63.0 °F 62.1 °F 97% 29.78 in 6.0 mi South 19.6 mph 29.9 mph 0.08 in Rain Light Rain
3:43 AM 62.6 °F 60.8 °F 94% 29.72 in 2.5 mi SSE 23.0 mph 32.2 mph 0.12 in Rain Heavy Rain
3:53 AM 63.0 °F 61.0 °F 93% 29.71 in 2.5 mi SSE 25.3 mph 33.4 mph 0.16 in Rain Rain
4:20 AM 62.6 °F 62.6 °F 100% 29.69 in 1.5 mi South 24.2 mph 35.7 mph 0.19 in Rain Heavy Rain
4:30 AM 64.4 °F 62.6 °F 94% 29.70 in 2.5 mi South 31.1 mph 46.0 mph 0.21 in   Overcast
4:37 AM 64.4 °F 62.6 °F 94% 29.71 in 3.0 mi South 31.1 mph 46.0 mph 0.21 in   Overcast
4:48 AM 62.6 °F 62.6 °F 100% 29.72 in 2.5 mi South 24.2 mph 42.6 mph 0.22 in   Overcast
4:53 AM 63.0 °F 62.1 °F 97% 29.73 in 2.5 mi SSW 23.0 mph 42.6 mph 0.23 in Rain Rain
5:13 AM 62.6 °F 60.8 °F 94% 29.73 in 4.0 mi SSW 21.9 mph 32.2 mph 0.01 in Rain Light Rain
5:46 AM 62.6 °F 60.8 °F 94% 29.73 in 2.0 mi SSW 17.3 mph 26.5 mph 0.03 in Rain Light Rain
5:53 AM 62.1 °F 61.0 °F 96% 29.74 in 1.8 mi SSW 20.7 mph 26.5 mph 0.03 in Rain Light Rain
6:53 AM 61.0 °F 60.1 °F 97% 29.75 in 1.0 mi SSW 18.4 mph 25.3 mph 0.01 in Rain Light Rain
7:26 AM 60.8 °F 60.8 °F 100% 29.75 in 0.8 mi SSW 18.4 mph 24.2 mph 0.00 in Rain Light Rain
7:35 AM 60.8 °F 60.8 °F 100% 29.75 in 1.0 mi SSW 17.3 mph 25.3 mph 0.00 in Rain Light Rain
7:53 AM 61.0 °F 60.1 °F 97% 29.76 in 1.2 mi SSW 16.1 mph 23.0 mph 0.01 in Rain Light Rain
8:11 AM 60.8 °F 60.8 °F 100% 29.76 in 0.5 mi SSW 19.6 mph 26.5 mph 0.00 in Fog Fog
8:30 AM 60.8 °F 60.8 °F 100% 29.76 in 1.8 mi SSW 18.4 mph - 0.00 in   Overcast
8:53 AM 62.1 °F 61.0 °F 96% 29.76 in 1.8 mi SSW 15.0 mph 23.0 mph 0.00 in Rain Light Rain
8:58 AM 62.6 °F 60.8 °F 94% 29.76 in 3.0 mi SSW 15.0 mph - 0.00 in Rain Light Rain
9:53 AM 62.1 °F 61.0 °F 96% 29.77 in 3.0 mi SSW 16.1 mph 23.0 mph 0.07 in Rain Rain
10:16 AM 60.8 °F 60.8 °F 100% 29.76 in 1.8 mi SSW 12.7 mph - 0.07 in Rain Heavy Rain
10:21 AM 60.8 °F 60.8 °F 100% 29.77 in 3.0 mi SSW 12.7 mph 20.7 mph 0.08 in Rain Light Rain
10:27 AM 60.8 °F 60.8 °F 100% 29.77 in 1.8 mi SSW 10.4 mph - 0.12 in Rain Heavy Rain
10:42 AM 62.6 °F 60.8 °F 94% 29.76 in 2.0 mi SW 11.5 mph 20.7 mph 0.20 in Rain Heavy Rain
10:50 AM 62.6 °F 60.8 °F 94% 29.77 in 1.5 mi SW 10.4 mph - 0.27 in Rain Heavy Rain
10:53 AM 62.1 °F 61.0 °F 96% 29.77 in 1.2 mi SW 15.0 mph - 0.31 in Rain Heavy Rain
11:08 AM 62.6 °F 60.8 °F 94% 29.77 in 3.0 mi SSW 10.4 mph - 0.08 in Rain Rain
11:53 AM 61.0 °F 61.0 °F 100% 29.75 in 8.0 mi SW 9.2 mph - 0.15 in Rain Light Rain
12:48 PM 62.6 °F 60.8 °F 94% 29.75 in 1.8 mi SW 9.2 mph - 0.01 in Rain Light Rain
12:53 PM 61.0 °F 61.0 °F 100% 29.75 in 1.0 mi SW 10.4 mph - 0.01 in Rain Light Rain
1:02 PM 60.8 °F 60.8 °F 100% 29.75 in 0.5 mi SW 10.4 mph - 0.00 in Fog , Rain Light Rain
1:13 PM 60.8 °F 60.8 °F 100% 29.74 in 0.2 mi SW 9.2 mph - 0.00 in Fog , Rain Light Rain
1:17 PM 60.8 °F 60.8 °F 100% 29.74 in 0.5 mi SW 8.1 mph - 0.00 in Fog , Rain Light Rain
1:29 PM 60.8 °F 60.8 °F 100% 29.74 in 2.0 mi WSW 4.6 mph - 0.02 in Rain Light Rain
1:38 PM 60.8 °F 60.8 °F 100% 29.74 in 5.0 mi WSW 6.9 mph - 0.03 in Rain Light Rain
1:53 PM 61.0 °F 60.1 °F 97% 29.74 in 5.0 mi SW 4.6 mph - 0.06 in Rain Light Rain
2:53 PM 64.0 °F 62.1 °F 93% 29.74 in 10.0 mi WNW 3.5 mph - 0.00 in   Mostly Cloudy
3:10 PM 64.4 °F 62.6 °F 94% 29.73 in 10.0 mi NW 3.5 mph - N/A   Scattered Clouds
3:17 PM 64.4 °F 62.6 °F 94% 29.73 in 10.0 mi West 3.5 mph - N/A   Mostly Cloudy
3:53 PM 66.0 °F 63.0 °F 90% 29.74 in 10.0 mi Variable 3.5 mph - N/A   Mostly Cloudy
4:29 PM 60.8 °F 59.0 °F 94% 29.74 in 7.0 mi SSE 10.4 mph - N/A   Overcast
4:42 PM 59.0 °F 57.2 °F 94% 29.74 in 1.0 mi South 6.9 mph - N/A   Overcast
4:51 PM 59.0 °F 57.2 °F 94% 29.74 in 0.5 mi South 6.9 mph - N/A Fog Fog
4:53 PM 59.0 °F 57.9 °F 96% 29.75 in 0.5 mi South 6.9 mph - N/A Fog Fog
5:00 PM 59.0 °F 57.2 °F 94% 29.75 in 1.5 mi South 5.8 mph - N/A Fog Fog
5:21 PM 59.0 °F 57.2 °F 94% 29.74 in 0.5 mi SSW 5.8 mph - 0.01 in Fog , Rain Light Rain
5:40 PM 60.8 °F 59.0 °F 94% 29.72 in 1.2 mi Calm Calm - 0.03 in Fog , Rain Light Rain
5:53 PM 60.1 °F 59.0 °F 96% 29.73 in 3.0 mi Calm Calm - 0.04 in Fog , Rain Light Rain
6:53 PM 61.0 °F 60.1 °F 97% 29.74 in 6.0 mi WSW 3.5 mph - 0.01 in   Overcast
7:41 PM 60.8 °F 60.8 °F 100% 29.74 in 2.5 mi WSW 3.5 mph - N/A   Overcast
7:50 PM 60.8 °F 60.8 °F 100% 29.74 in 5.0 mi Calm Calm - N/A   Overcast
7:53 PM 61.0 °F 60.1 °F 97% 29.75 in 5.0 mi Calm Calm - N/A   Overcast
8:43 PM 60.8 °F 59.0 °F 94% 29.74 in 1.8 mi NNW 3.5 mph - N/A   Overcast
8:53 PM 60.1 °F 59.0 °F 96% 29.75 in 1.0 mi Calm Calm - N/A   Overcast
9:00 PM 60.8 °F 59.0 °F 94% 29.74 in 3.0 mi Calm Calm - N/A   Overcast
9:19 PM 59.0 °F 57.2 °F 94% 29.75 in 2.5 mi NW 5.8 mph - N/A   Overcast
9:27 PM 59.0 °F 57.2 °F 94% 29.75 in 9.0 mi NW 4.6 mph - N/A   Overcast
9:53 PM 60.1 °F 59.0 °F 96% 29.75 in 10.0 mi North 3.5 mph - N/A   Overcast
10:16 PM 59.0 °F 57.2 °F 94% 29.75 in 1.8 mi NNE 8.1 mph - N/A   Overcast
10:27 PM 59.0 °F 57.2 °F 94% 29.75 in 0.8 mi NNE 8.1 mph - 0.00 in Rain Light Rain
10:36 PM 57.2 °F 57.2 °F 100% 29.75 in 2.0 mi NNE 12.7 mph 20.7 mph 0.01 in Rain Light Rain
10:44 PM 57.2 °F 57.2 °F 100% 29.76 in 4.0 mi NNE 10.4 mph - 0.01 in Rain Light Rain
10:53 PM 57.9 °F 57.0 °F 97% 29.75 in 5.0 mi NNE 9.2 mph - 0.01 in Rain Light Rain
11:53 PM 55.9 °F 54.0 °F 93% 29.74 in 10.0 mi North 12.7 mph 24.2 mph 0.01 in   Overcast